Regional Weather Roundup
Issued by NWS Albuquerque, NM

Home | Current Version | Previous Version | Text Only | Print | Product List | Glossary On
Versions: 1 2 3 4 5 6 7 8 9 10 11 12 13 14 15 16 17 18 19 20 21 22 23 24 25 26 27 28 29 30 31 32 33 34 35 36 37 38 39 40 41 42 43 44 45 46 47 48 49 50
440
NZUS01 KABQ 202210
RWRABQ
NEW MEXICO REGIONAL WEATHER ROUNDUP
NATIONAL WEATHER SERVICE  ALBUQUERQUE NM
400 PM MDT SAT JUL 20 2019


-----NORTHERN NEW MEXICO AND NEARBY AREAS-----


CITY           SKY/WX    TMP DP  RH WIND       PRES   REMARKS
ALBUQUERQUE    FAIR      99  42  14 VRB5      30.00F
BELEN          FAIR      98  34  11 CALM      30.00F
SOCORRO        FAIR      99  36  11 S5        29.98F

CITY           SKY/WX    TMP DP  RH WIND       PRES   REMARKS
SANTA FE       MOSUNNY   93  36  13 NW24G38   30.09S
LOS ALAMOS       N/A     79  36  21 NW18G33   30.21R
TAOS           PTSUNNY   85  41  21 E26G35    30.16F
ANGEL FIRE     RAIN      65  49  56 N20G26    30.35R
FARMINGTON     MOSUNNY   94  32  11 W9G23     30.05F
GRANTS         MOSUNNY   93  35  13 N9        30.15F
GALLUP         SUNNY     92  33  12 MISG      30.15F
FLAGSTAFF      SUNNY     84  28  13 SW18      30.24F
DURANGO        MOSUNNY   88  37  16 W14G25    30.16F

CITY           SKY/WX    TMP DP  RH WIND       PRES   REMARKS
ALAMOSA        PTSUNNY   83  40  21 NW22G32   30.21R
DENVER         PTSUNNY   78  59  51 NE12      30.14R
CLAYTON        LGT RAIN  83  50  31 NW15G33   29.93S
RATON          CLOUDY    91  37  15 NW12      30.07S
LAS VEGAS      CLOUDY    89  39  17 S13       30.13F
CLINES CORNERS MOSUNNY   90  40  17 MISG      30.16
SANTA ROSA     FAIR     105  43  12 W10       29.91F HX 100
TUCUMCARI      SUNNY    107  44  12 S9G20     29.82F HX 102
CLOVIS (AFB)   SUNNY    100  46  15 S8G17     29.91F HX  96
CLOVIS         SUNNY    103  46  14 W15       29.90F HX  99
AMARILLO       SUNNY    100  56  23 S21G30    29.86F HX  99

-----SOUTHERN NEW MEXICO AND NEARBY AREAS-----


CITY           SKY/WX    TMP DP  RH WIND       PRES   REMARKS
T OR C         PTSUNNY   99  42  14 W21       29.99F
DEMING         MOSUNNY  101  41  12 W7G18     29.94F HX  96
TUCSON         SUNNY    103  44  13 VRB7G20   29.90F HX  98
EL PASO        MOSUNNY  102  46  15 W9        29.91F HX  98
LAS CRUCES     SUNNY    101  41  13 W3        29.97F HX  96

CITY           SKY/WX    TMP DP  RH WIND       PRES   REMARKS
ALAMOGORDO     NOT AVBL
RUIDOSO        PTSUNNY   90  41  18 N15G22    30.17F
ROSWELL        SUNNY    108  47  13 S20G28    29.85F HX 104
CARLSBAD       PTSUNNY  105  50  15 SW9       29.84F HX 102
HOBBS          MOSUNNY  102  48  16 S12G20    29.90F HX  99



USA.gov is the U.S. government's official web portal to all federal, state and local government web resources and services.